BMCB-15 Weather Reports


Display with metric or nautical units.
time (UTC)temp
F
wind
direction
speed
MPH
gust
MPH
rain 1hr
in
rain 24hr
in
rain mn
in
humidity
%
barometer
mb
20260503021035 57 0 0.0 0.0 0.00 0.00 0.00 88 1014.4
20260503015035 57 0 0.0 0.0 0.00 0.00 0.00 88 1014.6
20260503014036 57 0 0.0 0.0 0.00 0.00 0.00 87 1014.7
20260503013037 57 0 0.0 0.0 0.00 0.00 0.00 88 1014.7
20260503012036 57 0 0.0 0.0 0.00 0.00 0.00 90 1014.8
20260503011035 57 0 0.0 0.0 0.00 0.00 0.00 91 1014.9
20260503005036 56 0 0.0 0.0 0.00 0.00 0.00 92 1015.0
20260503004037 56 0 0.0 0.0 0.00 0.00 0.00 92 1015.1
20260503003036 56 0 0.0 0.0 0.00 0.00 0.00 92 1015.1
20260503002040 57 0 0.0 0.0 0.00 0.00 0.00 91 1015.3
20260503001035 57 0 0.0 0.0 0.00 0.00 0.00 91 1015.4
20260503000044 57 0 0.0 0.0 0.00 0.00 0.00 90 1015.5
20260502235044 58 0 0.0 0.0 0.00 0.00 0.00 88 1015.5
20260502234041 58 0 0.0 0.0 0.00 0.00 0.00 89 1015.5
20260502233042 58 0 0.0 0.0 0.00 0.00 0.00 89 1015.6
20260502231043 59 0 0.0 0.0 0.00 0.00 0.00 88 1015.7
20260502230042 58 0 0.0 0.0 0.00 0.00 0.00 89 1015.8
20260502225041 58 0 0.0 0.0 0.00 0.00 0.00 88 1015.9
20260502224041 59 0 0.0 0.0 0.00 0.00 0.00 87 1015.9
20260502223043 59 0 0.0 0.0 0.00 0.00 0.00 85 1015.9
20260502222044 59 0 0.0 0.0 0.00 0.00 0.00 84 1015.9
20260502221043 60 0 0.0 0.0 0.00 0.00 0.00 82 1016.0
20260502220040 60 0 0.0 0.0 0.00 0.00 0.00 81 1016.0
20260502215046 60 0 0.0 0.0 0.00 0.00 0.00 81 1016.0
20260502214046 60 0 0.0 0.0 0.00 0.00 0.00 81 1016.1
20260502213048 60 0 0.0 0.0 0.00 0.00 0.00 82 1016.1
20260502212045 60 0 0.0 0.0 0.00 0.00 0.00 81 1016.0
20260502211045 60 0 0.0 0.0 0.00 0.00 0.00 81 1015.9
20260502210047 60 0 0.0 0.0 0.00 0.00 0.00 81 1015.9
20260502205049 61 0 0.0 0.0 0.00 0.00 0.00 80 1015.9
20260502204047 61 0 0.0 0.0 0.00 0.00 0.00 79 1016.0
20260502203048 61 0 0.0 0.0 0.00 0.00 0.00 78 1016.0
20260502201054 60 0 0.0 0.0 0.00 0.00 0.00 80 1016.1
20260502200049 60 0 0.0 0.0 0.00 0.00 0.00 80 1016.2
20260502193045 63 0 0.0 0.0 0.00 0.00 0.00 76 1016.1
20260502191046 63 0 0.0 0.0 0.00 0.00 0.00 75 1016.2
20260502190046 64 0 0.0 0.0 0.00 0.00 0.00 75 1016.2
20260502185045 64 0 0.0 0.0 0.00 0.00 0.00 73 1016.4
20260502184045 65 0 0.0 0.0 0.00 0.00 0.00 71 1016.5
20260502183043 65 0 0.0 0.0 0.00 0.00 0.00 70 1016.3
20260502182043 66 0 0.0 0.0 0.00 0.00 0.00 70 1016.2
20260502181045 67 0 0.0 0.0 0.00 0.00 0.00 70 1016.2
20260502164041 73 0 0.0 0.0 0.00 0.00 0.00 58 1015.9
20260502163039 72 0 0.0 0.0 0.00 0.00 0.00 59 1016.2
20260502162038 73 0 0.0 0.0 0.00 0.00 0.00 57 1016.3
20260502161039 74 0 0.0 0.0 0.00 0.00 0.00 55 1016.4
20260502152041 75 0 0.0 0.0 0.00 0.00 0.00 54 1016.8
20260502151040 75 0 0.0 0.0 0.00 0.00 0.00 54 1017.0
20260502122037 73 0 0.0 0.0 0.00 0.00 0.00 59 1019.5
20260502121036 73 0 0.0 0.0 0.00 0.00 0.00 59 1019.6
20260502115037 72 0 0.0 0.0 0.00 0.00 0.00 59 1020.0
20260502114039 72 0 0.0 0.0 0.00 0.00 0.00 62 1020.0
20260502113037 72 0 0.0 0.0 0.00 0.00 0.00 61 1020.2
20260502112037 71 0 0.0 0.0 0.00 0.00 0.00 63 1020.3
20260502111038 71 0 0.0 0.0 0.00 0.00 0.00 63 1020.3
20260502105038 71 0 0.0 0.0 0.00 0.00 0.00 61 1020.4
20260502104038 71 0 0.0 0.0 0.00 0.00 0.00 61 1020.5
20260502102037 71 0 0.0 0.0 0.00 0.00 0.00 62 1020.6
20260502101040 71 0 0.0 0.0 0.00 0.00 0.00 62 1020.7
20260502091038 68 0 0.0 0.0 0.00 0.00 0.00 65 1021.1
20260502071039 61 0 0.0 0.0 0.00 0.00 0.00 72 1022.1
20260502070036 60 0 0.0 0.0 0.00 0.00 0.00 73 1022.2
20260502065037 60 0 0.0 0.0 0.00 0.00 0.00 73 1022.2
20260502064036 59 0 0.0 0.0 0.00 0.00 0.00 73 1022.3
20260502062034 56 0 0.0 0.0 0.00 0.00 0.00 76 1022.3
20260502061036 56 0 0.0 0.0 0.00 0.00 0.00 75 1022.3
20260502060037 55 0 0.0 0.0 0.00 0.00 0.00 76 1022.3
20260502055038 54 0 0.0 0.0 0.00 0.00 0.00 77 1022.4
20260502053037 55 0 0.0 0.0 0.00 0.00 0.00 74 1022.2
20260502052033 55 0 0.0 0.0 0.00 0.00 0.00 75 1022.2
20260502051033 55 0 0.0 0.0 0.00 0.00 0.00 75 1022.2
20260502050037 55 0 0.0 0.0 0.00 0.00 0.00 73 1022.1
20260502045038 56 0 0.0 0.0 0.00 0.00 0.00 71 1022.0
20260502044039 56 0 0.0 0.0 0.00 0.00 0.00 71 1021.8
20260502043036 57 0 0.0 0.0 0.00 0.00 0.00 66 1021.6
20260502042035 57 0 0.0 0.0 0.00 0.00 0.00 64 1021.7
20260502041034 58 0 0.0 0.0 0.00 0.00 0.00 59 1021.8
20260502040038 57 0 0.0 0.0 0.00 0.00 0.00 59 1021.9
20260502035038 58 0 0.0 0.0 0.00 0.00 0.00 58 1022.1
20260502033037 55 0 0.0 0.0 0.00 0.00 0.00 58 1022.3
20260502032038 55 0 0.0 0.0 0.00 0.00 0.00 58 1022.3
20260502031036 55 0 0.0 0.0 0.00 0.00 0.00 58 1022.3
20260502030039 55 0 0.0 0.0 0.00 0.00 0.00 57 1022.4
20260502025036 55 0 0.0 0.0 0.00 0.00 0.00 55 1022.4
20260502024035 55 0 0.0 0.0 0.00 0.00 0.00 55 1022.4
20260502023037 54 0 0.0 0.0 0.00 0.00 0.00 56 1022.5
20260502022034 54 0 0.0 0.0 0.00 0.00 0.00 55 1022.5